sat.trackr.live / text

‹ back to catalog

STARLINK-1770

NORAD 46383 · 2020-062BL

PAYLOAD ACTIVE UNKNOWN

§ Identity

Operator
Country
US
Launch date
2020-09-03
Launch site
AFETR
Launch vehicle
Mass (kg)
RCS (m²)

Purposes: comms

External: N2YO · Heavens-Above · Gunter

§ Orbital elements

Epoch: 2026-09-13T23:10:57.432864Z

Period
87.69 min
Inclination
53.0145°
Eccentricity
0.0009957
Mean motion
16.42207054 rev/d
Perigee alt
153.4 km
Apogee alt
166.4 km
Semi-major
6,538.1 km
B*
4.4863e-4
RAAN
88.1861°
Arg perigee
285.0606°
Mean anomaly
74.9339°
Rev number
33,496

§ Raw data

STARLINK-17701 46383U 20062BL  26256.96594251  .09241640  12468-4  44863-3 0  99952 46383  53.0145  88.1861 0009957 285.0606  74.9339 16.42207054334964

JSON: /api/v1/satellites/46383 · /tle

For live sub-satellite position, see the globe view (requires WebGL).

§ Visibility from observer

Set your observer location to see the next 7 days of passes ≥ 10°. The values pass through the URL so the page stays shareable.

No JS? Fill the form by hand. The geolocation button needs JavaScript.